| time (UTC) | temp F | wind direction | speed knots | gust knots | rain 1hr in | rain 24hr in | rain mn in | humidity % | barometer mb |
| 20260508171505 | 41 | 352 | 2.6 | 5.2 | 0.00 | 0.86 | 0.01 | 96 | 1003.1 |
| 20260508170001 | 39 | 321 | 3.5 | 5.2 | 0.00 | 0.86 | 0.01 | 95 | 1003.2 |
| 20260508164601 | 39 | 329 | 3.5 | 5.2 | 0.00 | 0.86 | 0.01 | 95 | 1003.1 |
| 20260508163105 | 40 | 298 | 5.2 | 7.0 | 0.00 | 0.86 | 0.01 | 95 | 1002.9 |
| 20260508161607 | 40 | 294 | 5.2 | 7.0 | 0.00 | 0.86 | 0.01 | 94 | 1002.7 |
| 20260508160058 | 40 | 311 | 6.1 | 7.8 | 0.00 | 0.86 | 0.01 | 95 | 1002.6 |
| 20260508154559 | 41 | 334 | 4.3 | 7.8 | 0.00 | 0.86 | 0.01 | 95 | 1002.8 |
| 20260508153056 | 40 | 343 | 4.3 | 7.8 | 0.00 | 0.86 | 0.01 | 95 | 1002.7 |
| 20260508151605 | 40 | 327 | 3.5 | 5.2 | 0.00 | 0.86 | 0.01 | 95 | 1002.7 |
| 20260508150054 | 40 | 321 | 5.2 | 7.8 | 0.00 | 0.86 | 0.01 | 95 | 1002.9 |
| 20260508144553 | 40 | 312 | 5.2 | 7.8 | 0.00 | 0.86 | 0.01 | 95 | 1002.9 |
| 20260508143054 | 41 | 330 | 2.6 | 4.3 | 0.00 | 0.86 | 0.01 | 95 | 1002.9 |
| 20260508141553 | 40 | 329 | 2.6 | 5.2 | 0.00 | 0.86 | 0.01 | 95 | 1003.0 |
| 20260508140052 | 40 | 310 | 3.5 | 5.2 | 0.00 | 0.86 | 0.01 | 95 | 1003.5 |
| 20260508134556 | 40 | 296 | 1.7 | 4.3 | 0.00 | 0.86 | 0.01 | 95 | 1003.4 |
| 20260508133102 | 40 | 298 | 2.6 | 4.3 | 0.00 | 0.86 | 0.01 | 95 | 1003.3 |
| 20260508131549 | 41 | 319 | 1.7 | 4.3 | 0.00 | 0.86 | 0.01 | 95 | 1003.0 |
| 20260508130048 | 41 | 289 | 2.6 | 5.2 | 0.00 | 0.86 | 0.01 | 95 | 1002.8 |
| 20260508124548 | 41 | 304 | 4.3 | 5.2 | 0.00 | 0.86 | 0.01 | 95 | 1002.6 |
| 20260508123054 | 42 | 300 | 2.6 | 4.3 | 0.00 | 0.86 | 0.01 | 95 | 1002.6 |
| 20260508121552 | 41 | 338 | 0.9 | 3.5 | 0.00 | 0.86 | 0.01 | 95 | 1002.8 |
| 20260508120045 | 41 | 332 | 1.7 | 3.5 | 0.00 | 0.86 | 0.01 | 95 | 1002.9 |
| 20260508114543 | 41 | 332 | 0.0 | 2.6 | 0.00 | 0.86 | 0.01 | 95 | 1002.9 |
| 20260508113049 | 40 | 332 | 1.7 | 2.6 | 0.00 | 0.86 | 0.01 | 95 | 1002.8 |
| 20260508111547 | 40 | 332 | 1.7 | 3.5 | 0.00 | 0.86 | 0.01 | 95 | 1002.9 |
| 20260508110047 | 41 | 343 | 0.9 | 2.6 | 0.00 | 0.86 | 0.01 | 95 | 1003.1 |
| 20260508104542 | 40 | 343 | 0.9 | 1.7 | 0.00 | 0.86 | 0.01 | 95 | 1003.1 |
| 20260508103042 | 41 | 343 | 0.9 | 1.7 | 0.00 | 0.86 | 0.01 | 95 | 1003.2 |
| 20260508101540 | 41 | 343 | 0.0 | 1.7 | 0.00 | 0.86 | 0.01 | 95 | 1003.2 |
| 20260508100039 | 40 | 343 | 0.0 | 2.6 | 0.00 | 0.86 | 0.01 | 95 | 1003.0 |
| 20260508094544 | 40 | 343 | 0.9 | 2.6 | 0.00 | 0.86 | 0.01 | 95 | 1002.9 |
| 20260508093042 | 40 | 269 | 0.9 | 2.6 | 0.00 | 0.86 | 0.01 | 95 | 1002.8 |
| 20260508091536 | 40 | 269 | 1.7 | 3.5 | 0.00 | 0.86 | 0.01 | 95 | 1002.8 |
| 20260508090036 | 40 | 269 | 0.0 | 1.7 | 0.00 | 0.86 | 0.01 | 95 | 1002.5 |
| 20260508084532 | 41 | 269 | 1.7 | 3.5 | 0.00 | 0.86 | 0.01 | 94 | 1002.2 |
| 20260508083030 | 42 | 256 | 2.6 | 5.2 | 0.01 | 0.86 | 0.01 | 95 | 1002.2 |
| 20260508081533 | 42 | 331 | 0.0 | 0.0 | 0.01 | 0.86 | 0.01 | 95 | 1001.8 |
| 20260508080028 | 42 | 331 | 0.0 | 0.9 | 0.01 | 0.86 | 0.01 | 95 | 1002.0 |
| 20260508074527 | 42 | 331 | 0.9 | 2.6 | 0.01 | 0.86 | 0.01 | 94 | 1002.0 |
| 20260508073026 | 42 | 331 | 0.9 | 2.6 | 0.00 | 0.85 | 0.00 | 95 | 1002.3 |
| 20260508071529 | 42 | 331 | 2.6 | 3.5 | 0.00 | 0.85 | 0.00 | 94 | 1002.3 |
| 20260508070025 | 43 | 331 | 0.0 | 0.9 | 0.00 | 0.85 | 0.00 | 94 | 1002.4 |
| 20260508064524 | 43 | 331 | 1.7 | 3.5 | 0.00 | 0.85 | 0.00 | 94 | 1002.4 |
| 20260508063022 | 44 | 17 | 1.7 | 3.5 | 0.00 | 0.85 | 0.00 | 95 | 1002.2 |
| 20260508061525 | 43 | 20 | 1.7 | 3.5 | 0.00 | 0.85 | 0.00 | 95 | 1002.3 |
| 20260508060019 | 43 | 19 | 2.6 | 5.2 | 0.00 | 0.85 | 0.00 | 94 | 1002.5 |
| 20260508054521 | 43 | 357 | 4.3 | 5.2 | 0.00 | 0.85 | 0.00 | 94 | 1002.6 |
| 20260508053020 | 43 | 359 | 2.6 | 4.3 | 0.00 | 0.85 | 0.00 | 94 | 1002.9 |
| 20260508051527 | 43 | 358 | 4.3 | 7.0 | 0.00 | 0.85 | 0.00 | 94 | 1003.0 |
| 20260508050015 | 42 | 360 | 3.5 | 7.0 | 0.00 | 0.85 | 0.00 | 94 | 1002.8 |
| 20260508044513 | 43 | 11 | 0.9 | 3.5 | 0.00 | 0.85 | 0.00 | 94 | 1002.8 |
| 20260508043017 | 43 | 13 | 0.9 | 3.5 | 0.00 | 0.85 | 0.00 | 94 | 1002.5 |
| 20260508041511 | 43 | 314 | 3.5 | 7.0 | 0.00 | 0.85 | 0.00 | 93 | 1003.0 |
| 20260508040013 | 42 | 88 | 0.0 | 5.2 | 0.00 | 0.85 | 0.00 | 94 | 1002.9 |
| 20260508034509 | 42 | 274 | 0.0 | 1.7 | 0.00 | 0.85 | 0.00 | 93 | 1002.9 |
| 20260508033007 | 43 | 275 | 3.5 | 6.1 | 0.00 | 0.85 | 0.00 | 92 | 1003.0 |
| 20260508031601 | 46 | 88 | 0.9 | 3.5 | 0.00 | 0.85 | 0.00 | 92 | 1002.8 |
| 20260508024558 | 48 | 88 | 0.0 | 2.6 | 0.00 | 0.85 | 0.85 | 94 | 1002.7 |
| 20260508023056 | 47 | 88 | 2.6 | 5.2 | 0.01 | 0.85 | 0.85 | 94 | 1002.7 |
| 20260508021556 | 45 | 190 | 0.0 | 0.0 | 0.02 | 0.85 | 0.85 | 92 | 1003.1 |
| 20260508021506 | 45 | 190 | 0.0 | 0.0 | 0.02 | 0.85 | 0.85 | 93 | 1003.1 |
| 20260508020051 | 46 | 190 | 0.0 | 0.0 | 0.03 | 0.85 | 0.85 | 93 | 1003.1 |
| 20260508014551 | 46 | 200 | 0.0 | 0.0 | 0.04 | 0.85 | 0.85 | 93 | 1003.4 |
| 20260508013051 | 46 | 200 | 0.0 | 0.0 | 0.05 | 0.84 | 0.84 | 92 | 1003.4 |
| 20260508011550 | 46 | 200 | 0.0 | 2.6 | 0.06 | 0.83 | 0.83 | 92 | 1003.3 |
| 20260508010052 | 47 | 199 | 0.9 | 1.7 | 0.08 | 0.82 | 0.82 | 92 | 1003.3 |
| 20260508004552 | 47 | 199 | 0.9 | 2.6 | 0.10 | 0.81 | 0.81 | 92 | 1003.3 |
| 20260508003048 | 47 | 199 | 1.7 | 3.5 | 0.12 | 0.80 | 0.80 | 92 | 1003.4 |
| 20260508001547 | 47 | 199 | 2.6 | 4.3 | 0.11 | 0.77 | 0.77 | 91 | 1003.4 |
| 20260508000046 | 47 | 207 | 2.6 | 6.1 | 0.08 | 0.74 | 0.74 | 91 | 1003.5 |
| 20260507234556 | 46 | 208 | 6.1 | 10.4 | 0.05 | 0.71 | 0.71 | 91 | 1003.2 |
| 20260507233044 | 48 | 257 | 5.2 | 10.4 | 0.02 | 0.68 | 0.68 | 88 | 1002.8 |
| 20260507231548 | 48 | 229 | 7.0 | 11.3 | 0.00 | 0.66 | 0.66 | 87 | 1002.6 |
| 20260507230036 | 55 | 230 | 11.3 | 15.6 | 0.00 | 0.66 | 0.66 | 80 | 1002.1 |
| 20260507224537 | 57 | 169 | 3.5 | 10.4 | 0.00 | 0.66 | 0.66 | 84 | 1001.5 |
| 20260507223035 | 56 | 141 | 7.0 | 13.9 | 0.00 | 0.66 | 0.66 | 84 | 1001.4 |
| 20260507221535 | 56 | 138 | 7.0 | 13.0 | 0.00 | 0.66 | 0.66 | 84 | 1001.5 |
| 20260507220033 | 56 | 150 | 13.0 | 20.0 | 0.00 | 0.66 | 0.66 | 84 | 1001.4 |
| 20260507214533 | 57 | 147 | 10.4 | 18.2 | 0.00 | 0.66 | 0.66 | 84 | 1001.4 |
| 20260507213032 | 56 | 148 | 10.4 | 16.5 | 0.00 | 0.66 | 0.66 | 84 | 1001.0 |
| 20260507211533 | 56 | 152 | 11.3 | 19.1 | 0.00 | 0.66 | 0.66 | 85 | 1001.0 |
| 20260507210033 | 56 | 161 | 13.0 | 20.9 | 0.00 | 0.66 | 0.66 | 85 | 1001.3 |
| 20260507204531 | 56 | 129 | 15.6 | 20.0 | 0.02 | 0.66 | 0.66 | 83 | 1001.3 |
| 20260507203031 | 58 | 158 | 13.9 | 18.2 | 0.09 | 0.66 | 0.66 | 83 | 1001.1 |
| 20260507201537 | 57 | 106 | 10.4 | 15.6 | 0.16 | 0.66 | 0.66 | 85 | 1000.6 |
| 20260507200043 | 56 | 131 | 10.4 | 20.9 | 0.19 | 0.66 | 0.66 | 85 | 1000.2 |
| 20260507194527 | 55 | 118 | 15.6 | 22.6 | 0.20 | 0.65 | 0.65 | 88 | 1001.2 |
| 20260507193023 | 55 | 134 | 16.5 | 21.7 | 0.17 | 0.56 | 0.56 | 89 | 1002.1 |
| 20260507191520 | 55 | 176 | 7.8 | 13.9 | 0.16 | 0.50 | 0.50 | 88 | 1003.5 |
| 20260507190018 | 55 | 156 | 8.7 | 16.5 | 0.20 | 0.47 | 0.47 | 88 | 1003.2 |
| 20260507184517 | 55 | 125 | 10.4 | 19.1 | 0.30 | 0.44 | 0.44 | 88 | 1003.6 |
| 20260507183030 | 55 | 154 | 13.0 | 22.6 | 0.38 | 0.39 | 0.39 | 88 | 1003.9 |
| 20260507181514 | 55 | 171 | 10.4 | 14.8 | 0.34 | 0.34 | 0.34 | 89 | 1004.3 |
| 20260507180012 | 55 | 185 | 7.0 | 15.6 | 0.27 | 0.27 | 0.27 | 89 | 1004.4 |
| 20260507174512 | 55 | 168 | 10.4 | 18.2 | 0.13 | 0.13 | 0.13 | 88 | 1004.8 |
| 20260507173007 | 56 | 201 | 10.4 | 22.6 | 0.01 | 0.01 | 0.01 | 85 | 1004.3 |